When you browse on this site, cookies collect data to enhance your experience and personalize the content and advertising you see.
Visit our Privacy Policy to learn more. By continuing to use the site, you agree to this use of cookies and data.
  • In Czech Republic
  • List of Countries
  • For 7 days
  • Water Temperature
  • Weather Map
  • Weather Widgets
  • user-avatar
    Login

    Hourly Weather Kerns

    Today, 20 August, Tuesday

    Time Temperature Precipitation Wind Pressure Humidity
    00:00 +18°C° 0 mm 3 mps 763 mmHg 69%
    01:00 +18°C° 0 mm 3 mps 762 mmHg 67%
    02:00 +17°C° 0 mm 3 mps 762 mmHg 68%
    03:00 +17°C° 0 mm 3 mps 762 mmHg 68%
    04:00 +17°C° 0 mm 3 mps 762 mmHg 68%
    05:00 +17°C° 0 mm 3 mps 762 mmHg 67%
    06:00 +17°C° 0 mm 3 mps 763 mmHg 67%
    07:00 +17°C° 0 mm 3 mps 763 mmHg 67%
    08:00 +20°C° 0 mm 4 mps 763 mmHg 57%
    09:00 +23°C° 0 mm 4 mps 764 mmHg 47%
    10:00 +28°C° 0 mm 5 mps 764 mmHg 38%
    11:00 +28°C° 0 mm 5 mps 763 mmHg 38%
    12:00 +28°C° 0 mm 6 mps 763 mmHg 38%
    13:00 +29°C° 0 mm 7 mps 762 mmHg 39%
    14:00 +28°C° 0 mm 7 mps 762 mmHg 41%
    15:00 +27°C° 0 mm 7 mps 762 mmHg 44%
    16:00 +27°C° 0 mm 7 mps 761 mmHg 46%
    17:00 +23°C° 0 mm 6 mps 762 mmHg 59%
    18:00 +21°C° 0 mm 6 mps 763 mmHg 72%
    19:00 +19°C° 0 mm 5 mps 763 mmHg 85%
    20:00 +17°C° 0 mm 5 mps 764 mmHg 88%
    21:00 +17°C° 0 mm 5 mps 764 mmHg 91%
    22:00 +17°C° 0 mm 4 mps 765 mmHg 95%
    23:00 +16°C° 0.1 mm 5 mps 764 mmHg 95%

    Tomorrow, 21 August, Wednesday

    Time Temperature Precipitation Wind Pressure Humidity
    00:00 +17°C° 0.1 mm 5 mps 764 mmHg 95%
    01:00 +17°C° 0.1 mm 5 mps 764 mmHg 95%
    02:00 +17°C° 0 mm 5 mps 763 mmHg 94%
    03:00 +16°C° 0 mm 6 mps 763 mmHg 93%
    04:00 +16°C° 0 mm 6 mps 762 mmHg 92%
    05:00 +16°C° 0 mm 6 mps 763 mmHg 92%
    06:00 +16°C° 0 mm 6 mps 763 mmHg 92%
    07:00 +16°C° 0 mm 6 mps 763 mmHg 92%
    08:00 +19°C° 0 mm 6 mps 763 mmHg 81%
    09:00 +21°C° 0 mm 7 mps 764 mmHg 70%
    10:00 +23°C° 0 mm 7 mps 764 mmHg 58%
    11:00 +24°C° 0 mm 7 mps 763 mmHg 55%
    12:00 +26°C° 0 mm 7 mps 763 mmHg 52%
    13:00 +27°C° 0 mm 7 mps 762 mmHg 49%
    14:00 +27°C° 0 mm 7 mps 762 mmHg 51%
    15:00 +26°C° 0 mm 7 mps 762 mmHg 53%
    16:00 +26°C° 0 mm 7 mps 761 mmHg 55%
    17:00 +23°C° 0 mm 6 mps 762 mmHg 65%
    18:00 +21°C° 0 mm 6 mps 762 mmHg 76%
    19:00 +19°C° 0 mm 5 mps 762 mmHg 86%
    20:00 +17°C° 0 mm 5 mps 763 mmHg 90%
    21:00 +17°C° 0 mm 4 mps 763 mmHg 93%
    22:00 +17°C° 0 mm 4 mps 764 mmHg 96%
    23:00 +15°C° 0 mm 4 mps 763 mmHg 96%

    Day after tomorrow, 22 August, Thursday

    Time Temperature Precipitation Wind Pressure Humidity
    00:00 +15°C° 0 mm 4 mps 763 mmHg 96%
    01:00 +15°C° 0 mm 4 mps 763 mmHg 96%
    02:00 +15°C° 0 mm 4 mps 763 mmHg 96%
    03:00 +15°C° 0 mm 4 mps 763 mmHg 96%
    04:00 +15°C° 0 mm 4 mps 763 mmHg 96%
    05:00 +15°C° 0 mm 4 mps 763 mmHg 96%
    06:00 +15°C° 0 mm 4 mps 763 mmHg 96%
    07:00 +15°C° 0 mm 4 mps 763 mmHg 95%
    08:00 +19°C° 0 mm 5 mps 764 mmHg 81%
    09:00 +21°C° 0 mm 5 mps 764 mmHg 67%
    10:00 +24°C° 0 mm 6 mps 764 mmHg 53%
    11:00 +26°C° 0 mm 6 mps 763 mmHg 48%
    12:00 +27°C° 0 mm 6 mps 762 mmHg 44%
    13:00 +27°C° 0 mm 6 mps 762 mmHg 39%
    14:00 +27°C° 0 mm 6 mps 762 mmHg 40%
    15:00 +26°C° 0 mm 6 mps 761 mmHg 40%
    16:00 +26°C° 0 mm 6 mps 761 mmHg 41%
    17:00 +22°C° 0 mm 5 mps 762 mmHg 50%
    18:00 +20°C° 0 mm 4 mps 762 mmHg 59%
    19:00 +17°C° 0 mm 4 mps 762 mmHg 68%
    20:00 +16°C° 0 mm 3 mps 763 mmHg 68%
    21:00 +14°C° 0 mm 3 mps 763 mmHg 69%
    22:00 +13°C° 0 mm 3 mps 763 mmHg 69%
    23:00 +14°C° 0 mm 2 mps 763 mmHg 66%

    23 August, Friday

    Time Temperature Precipitation Wind Pressure Humidity
    00:00 +14°C° 0 mm 2 mps 763 mmHg 63%
    01:00 +13°C° 0 mm 2 mps 762 mmHg 60%
    02:00 +13°C° 0 mm 2 mps 762 mmHg 62%
    03:00 +13°C° 0 mm 2 mps 762 mmHg 64%
    04:00 +13°C° 0 mm 2 mps 762 mmHg 67%
    05:00 +13°C° 0 mm 2 mps 763 mmHg 69%
    06:00 +14°C° 0 mm 2 mps 763 mmHg 72%
    07:00 +14°C° 0 mm 2 mps 764 mmHg 74%
    08:00 +17°C° 0 mm 3 mps 764 mmHg 64%
    09:00 +21°C° 0 mm 4 mps 764 mmHg 55%
    10:00 +25°C° 0 mm 4 mps 764 mmHg 45%
    11:00 +26°C° 0 mm 4 mps 763 mmHg 43%
    12:00 +27°C° 0 mm 5 mps 762 mmHg 42%
    13:00 +28°C° 0 mm 5 mps 762 mmHg 40%
    14:00 +27°C° 0 mm 5 mps 762 mmHg 43%
    15:00 +26°C° 0 mm 5 mps 761 mmHg 47%
    16:00 +26°C° 0 mm 5 mps 761 mmHg 50%
    17:00 +22°C° 0 mm 5 mps 762 mmHg 62%
    18:00 +20°C° 0 mm 4 mps 762 mmHg 75%
    19:00 +18°C° 0 mm 4 mps 763 mmHg 87%
    20:00 +17°C° 0 mm 4 mps 763 mmHg 89%
    21:00 +17°C° 0 mm 4 mps 764 mmHg 91%
    22:00 +15°C° 0 mm 4 mps 764 mmHg 92%
    23:00 +15°C° 0 mm 4 mps 764 mmHg 94%

    24 August, Saturday

    Time Temperature Precipitation Wind Pressure Humidity
    00:00 +14°C° 0 mm 3 mps 763 mmHg 95%
    01:00 +14°C° 0 mm 3 mps 763 mmHg 96%
    02:00 +14°C° 0 mm 3 mps 763 mmHg 95%
    03:00 +13°C° 0 mm 3 mps 763 mmHg 95%
    04:00 +13°C° 0 mm 3 mps 763 mmHg 94%
    05:00 +13°C° 0 mm 3 mps 763 mmHg 93%
    06:00 +14°C° 0 mm 3 mps 763 mmHg 92%
    07:00 +14°C° 0 mm 3 mps 764 mmHg 91%
    08:00 +18°C° 0 mm 3 mps 764 mmHg 78%
    09:00 +21°C° 0 mm 3 mps 764 mmHg 65%
    10:00 +26°C° 0 mm 4 mps 764 mmHg 52%
    11:00 +26°C° 0 mm 4 mps 763 mmHg 52%
    12:00 +27°C° 0 mm 4 mps 763 mmHg 51%
    13:00 +27°C° 0 mm 4 mps 762 mmHg 51%
    14:00 +27°C° 0 mm 4 mps 761 mmHg 52%
    15:00 +27°C° 0 mm 4 mps 761 mmHg 53%
    16:00 +26°C° 0 mm 4 mps 760 mmHg 54%
    17:00 +23°C° 0 mm 4 mps 761 mmHg 63%
    18:00 +20°C° 0 mm 3 mps 761 mmHg 72%
    19:00 +18°C° 0 mm 3 mps 762 mmHg 82%
    20:00 +18°C° 0 mm 3 mps 762 mmHg 85%
    21:00 +17°C° 0 mm 3 mps 763 mmHg 87%
    22:00 +17°C° 0 mm 3 mps 763 mmHg 90%
    23:00 +16°C° 0 mm 3 mps 763 mmHg 91%

    25 August, Sunday

    Time Temperature Precipitation Wind Pressure Humidity
    00:00 +16°C° 0 mm 3 mps 762 mmHg 93%
    01:00 +16°C° 0 mm 2 mps 762 mmHg 94%
    02:00 +16°C° 0 mm 2 mps 762 mmHg 94%
    03:00 +16°C° 0 mm 2 mps 762 mmHg 95%
    04:00 +16°C° 0 mm 2 mps 761 mmHg 95%
    05:00 +16°C° 0 mm 2 mps 762 mmHg 95%
    06:00 +16°C° 0 mm 2 mps 762 mmHg 94%
    07:00 +17°C° 0 mm 2 mps 763 mmHg 94%
    08:00 +20°C° 0 mm 3 mps 763 mmHg 80%
    09:00 +24°C° 0 mm 3 mps 763 mmHg 66%
    10:00 +27°C° 0 mm 3 mps 763 mmHg 52%
    11:00 +28°C° 0 mm 3 mps 762 mmHg 49%
    12:00 +29°C° 0 mm 3 mps 761 mmHg 47%
    13:00 +30°C° 0 mm 4 mps 761 mmHg 44%
    14:00 +29°C° 0 mm 4 mps 760 mmHg 48%
    15:00 +28°C° 0 mm 4 mps 760 mmHg 52%
    16:00 +27°C° 0 mm 4 mps 760 mmHg 55%
    17:00 +25°C° 0 mm 4 mps 760 mmHg 68%
    18:00 +22°C° 0 mm 4 mps 761 mmHg 82%
    19:00 +20°C° 0 mm 4 mps 761 mmHg 95%
    20:00 +20°C° 0.1 mm 4 mps 761 mmHg 96%
    21:00 +19°C° 0.1 mm 4 mps 762 mmHg 96%
    22:00 +19°C° 0.1 mm 4 mps 762 mmHg 97%
    23:00 +19°C° 0.1 mm 4 mps 762 mmHg 97%
    Show more